BAW384 EGLL-EBBR

Flight info

Callsign BAW384
Flight time N/A
Altitude 23000
Route DCT DET Q70 KOK DCT
Aircraft A320/M-SDE3FGHIJ1KRWXY/S

Departure

Time N/A
Airport London Heathrow Airport (EGLL)

Arrival

Time 2026-05-01 07:36
Airport Brussels Airport (EBBR)
Time Latitude Longitude Altitude Speed Heading
2026-05-01 07:23 51.00373 3.39544 17418 ft 368 kts 104°
2026-05-01 07:23 50.99385 3.47409 16421 ft 359 kts 104°
2026-05-01 07:24 50.98898 3.51267 15925 ft 355 kts 104°
2026-05-01 07:24 50.98419 3.55035 15441 ft 352 kts 104°
2026-05-01 07:24 50.97934 3.58824 14956 ft 349 kts 104°
2026-05-01 07:24 50.97453 3.62577 14471 ft 346 kts 104°
2026-05-01 07:25 50.96974 3.66297 13979 ft 343 kts 104°
2026-05-01 07:25 50.96502 3.69985 13463 ft 339 kts 104°
2026-05-01 07:25 50.96030 3.73636 12984 ft 335 kts 104°
2026-05-01 07:25 50.95564 3.77239 12520 ft 332 kts 104°
2026-05-01 07:26 50.95258 3.79602 12205 ft 329 kts 104°
2026-05-01 07:26 50.94647 3.84321 11593 ft 325 kts 104°
2026-05-01 07:26 50.94345 3.86634 11291 ft 323 kts 104°
2026-05-01 07:26 50.93890 3.90113 10836 ft 320 kts 104°
2026-05-01 07:27 50.93440 3.93550 10614 ft 311 kts 104°
2026-05-01 07:27 50.92818 3.97838 10460 ft 294 kts 111°
2026-05-01 07:27 50.91957 4.00677 10336 ft 281 kts 125°
2026-05-01 07:27 50.90798 4.03107 10141 ft 273 kts 130°
2026-05-01 07:28 50.90013 4.04690 9761 ft 278 kts 129°
2026-05-01 07:28 50.88837 4.07071 9494 ft 273 kts 129°
2026-05-01 07:28 50.87671 4.09436 9143 ft 271 kts 129°
2026-05-01 07:28 50.86494 4.11813 8788 ft 270 kts 129°
2026-05-01 07:29 50.85355 4.14110 8453 ft 268 kts 129°
2026-05-01 07:29 50.84207 4.16425 8124 ft 266 kts 129°
2026-05-01 07:29 50.83076 4.18705 7627 ft 262 kts 129°
2026-05-01 07:29 50.81952 4.20970 7019 ft 260 kts 129°
2026-05-01 07:30 50.80843 4.23208 6416 ft 258 kts 129°
2026-05-01 07:30 50.79742 4.25430 5784 ft 256 kts 128°
2026-05-01 07:30 50.78645 4.27640 5171 ft 256 kts 128°
2026-05-01 07:30 50.77540 4.29852 4512 ft 256 kts 129°
2026-05-01 07:31 50.76475 4.31981 4244 ft 242 kts 129°
2026-05-01 07:31 50.73696 4.37551 3867 ft 195 kts 129°
2026-05-01 07:32 50.73141 4.41416 3438 ft 192 kts 69°
2026-05-01 07:32 50.73996 4.42989 3178 ft 194 kts 33°
2026-05-01 07:33 50.76570 4.44221 2692 ft 190 kts 15°
2026-05-01 07:33 50.77845 4.44732 2443 ft 188 kts 16°
2026-05-01 07:33 50.80320 4.45734 1933 ft 181 kts 17°
2026-05-01 07:34 50.81528 4.46225 1724 ft 177 kts 18°
2026-05-01 07:34 50.83824 4.47155 1228 ft 157 kts 19°
2026-05-01 07:34 50.84848 4.47572 1019 ft 149 kts 18°
2026-05-01 07:35 50.85847 4.47980 819 ft 147 kts 19°
2026-05-01 07:35 50.86819 4.48375 610 ft 142 kts 17°
2026-05-01 07:35 50.87800 4.48776 423 ft 140 kts 17°
2026-05-01 07:35 50.88692 4.49141 245 ft 140 kts 17°
2026-05-01 07:36 50.89585 4.49520 159 ft 113 kts 20°
2026-05-01 07:36 50.90154 4.49740 127 ft 49 kts 12°
2026-05-01 07:36 50.90421 4.49842 122 ft 37 kts 14°
2026-05-01 07:36 50.90668 4.49931 122 ft 33 kts
2026-05-01 07:37 50.90865 4.49780 120 ft 13 kts 232°
2026-05-01 07:37 50.90778 4.49723 124 ft 16 kts 191°
2026-05-01 07:37 50.90661 4.49676 124 ft 19 kts 194°
2026-05-01 07:38 50.90524 4.49620 124 ft 22 kts 195°
2026-05-01 07:38 50.90393 4.49547 121 ft 14 kts 237°
2026-05-01 07:38 50.90301 4.49234 126 ft 12 kts 245°
2026-05-01 07:39 50.90261 4.49096 131 ft 15 kts 245°
2026-05-01 07:39 50.90216 4.49026 127 ft 8 kts 173°
2026-05-01 07:39 50.90162 4.49062 127 ft 0 kts 155°